Delta Virtual Airport Information Service

New Orleans Louis Armstrong International Airport

ICAO: KMSY Country: United States
Latitude: 29.9934 Longitude: -90.258
Latest Arrival : SWA5622 (C) (KFLL-KMSY) Latest Departure : SWA5539 (E) (KMSY-KHOU)


WX CaptureLIVE
Data provided by noaa.gov | Fetched at 03:20:37

METAR : KMSY 300753Z 20013G21KT 10SM OVC012 24/23 A2993 RMK AO2 LTG DSNT NW SLP137 T02440233 $

TAF : KMSY 300753Z 20013G21KT 10SM OVC012 24/23 A2993 RMK AO2 LTG DSNT NW SLP137 T02440233 $


Runway Data for KMSY
Data provided by openaviationdata.com

Runway ID Mag Var Hdg Length Elevation Surface ILS Freq ILS Id ILS Slope
1 2 13° 7017 ft 4 ft Concrete 111.7 IJFI 3
6 2 58° 3569 ft 4 ft Asphalt -- -- --
10 2 103° 10097 ft 4 ft Asphalt 109.9 IMSY 2
19 2 193° 7017 ft 4 ft Concrete 111.7 IONW 0
24 2 238° 3569 ft 4 ft Asphalt -- -- --
28 2 283° 10097 ft 4 ft Asphalt 109.9 IHOX 3

New Orleans Louis Armstrong International Airport, United States
Use only for reference purposes



Not for navigational purposes.